, AK

(GMT )
Portage Glacier

Weather History for PATO - January, 2014

Change the Weather History Date:

Saturday, January 11, 2014

  Actual Average Record
Temperature  
Mean Temperature 23 °F -  
Max Temperature 27 °F - - ()
Min Temperature 19 °F - - ()
Degree Days  
Heating Degree Days 42    
Moisture  
Dew Point 22 °F    
Average Humidity 88    
Maximum Humidity 96    
Minimum Humidity 78    
Precipitation  
Precipitation 0.00 in - - ()
Sea Level Pressure  
Sea Level Pressure 29.19 in    
Wind  
Wind Speed 8 mph (West)    
Max Wind Speed 12 mph    
Max Gust Speed 17 mph    
Visibility 10 miles    
Events      
Averages and records for this station are not official NWS values.
T = Trace of Precipitation, MM = Missing Value Source: NWS Daily Summary

Daily Weather History Graph

Daily Weather History Graph

Search for Another Location

Airport or City:

Trip Planner

Search our weather history database for the weather conditions in past years. The results will help you decide how hot, cold, wet, or windy it might be!

Date:

Astronomy

Jan. 11, 2014 Rise Set
Actual Time 9:54 AM AKST 4:12 PM AKST
Civil Twilight 8:58 AM AKST 5:08 PM AKST
Nautical Twilight 8:02 AM AKST 6:05 PM AKST
Astronomical Twilight 7:10 AM AKST 6:56 PM AKST
Moon 1:16 PM AKST (1/11) 5:53 AM AKST (1/11)
Length of Visible Light 8h 10m
Length of Day
6h 17m
Waxing Gibbous, 84% of the Moon is Illuminated
Jan 11
Waxing Gibbous
Jan 15
Full
Jan 23
Last Quarter
Jan 30
New
Feb 6
First Quarter

Hourly Weather History & Observations

Time (AKST) Temp. Windchill Dew Point Humidity Pressure Visibility Wind Dir Wind Speed Gust Speed Precip Events Conditions
12:03 AM 27.0 °F 16.7 °F 26.1 °F 96% 29.28 in 10.0 mi West 11.5 mph 17.3 mph N/A   Overcast
12:21 AM 27.0 °F 18.0 °F 25.0 °F 92% 29.28 in 10.0 mi West 9.2 mph - N/A   Overcast
12:53 AM 27.0 °F 16.7 °F 25.0 °F 92% 29.28 in 10.0 mi West 11.5 mph - N/A   Overcast
1:23 AM 27.0 °F 17.3 °F 25.0 °F 92% 29.27 in 10.0 mi WSW 10.4 mph 17.3 mph N/A   Overcast
1:53 AM 27.0 °F 18.0 °F 24.1 °F 89% 29.27 in 10.0 mi West 9.2 mph - N/A   Overcast
2:08 AM 27.0 °F 18.0 °F 24.1 °F 89% 29.26 in 10.0 mi West 9.2 mph - N/A   Overcast
2:40 AM 27.0 °F 18.7 °F 24.1 °F 89% 29.25 in 10.0 mi West 8.1 mph - N/A   Overcast
2:53 AM 27.0 °F 17.3 °F 24.1 °F 89% 29.25 in 10.0 mi West 10.4 mph - N/A   Overcast
3:42 AM 27.0 °F 18.0 °F 24.1 °F 89% 29.24 in 10.0 mi West 9.2 mph - N/A   Overcast
3:53 AM 27.0 °F 17.3 °F 24.1 °F 89% 29.24 in 10.0 mi West 10.4 mph - N/A   Overcast
4:06 AM 27.0 °F 18.0 °F 24.1 °F 89% 29.23 in 10.0 mi West 9.2 mph - N/A   Overcast
4:45 AM 26.1 °F 16.8 °F 24.1 °F 92% 29.22 in 10.0 mi West 9.2 mph - N/A   Overcast
4:53 AM 26.1 °F 17.6 °F 24.1 °F 92% 29.23 in 10.0 mi West 8.1 mph - N/A   Overcast
5:53 AM 26.1 °F 16.8 °F 23.0 °F 88% 29.21 in 10.0 mi West 9.2 mph - N/A   Overcast
6:25 AM 26.1 °F 18.4 °F 23.0 °F 88% 29.20 in 10.0 mi WNW 6.9 mph - N/A   Overcast
6:53 AM 26.1 °F 18.4 °F 23.0 °F 88% 29.20 in 10.0 mi West 6.9 mph - N/A   Overcast
7:53 AM 25.0 °F 19.3 °F 23.0 °F 92% 29.18 in 10.0 mi WNW 4.6 mph - N/A   Overcast
8:53 AM 25.0 °F 16.3 °F 23.0 °F 92% 29.18 in 10.0 mi West 8.1 mph - N/A   Overcast
9:25 AM 25.0 °F 18.1 °F 23.0 °F 92% 29.17 in 10.0 mi WNW 5.8 mph - N/A   Overcast
9:53 AM 25.0 °F 18.1 °F 23.0 °F 92% 29.17 in 10.0 mi WNW 5.8 mph - N/A   Overcast
10:53 AM 25.0 °F 17.1 °F 23.0 °F 92% 29.16 in 10.0 mi West 6.9 mph - N/A   Overcast
11:53 AM 26.1 °F 18.4 °F 23.0 °F 88% 29.16 in 10.0 mi WNW 6.9 mph - N/A   Overcast
12:16 PM 26.1 °F 20.5 °F 23.0 °F 88% 29.14 in 10.0 mi WNW 4.6 mph - N/A   Overcast
12:53 PM 26.1 °F 18.4 °F 23.0 °F 88% 29.14 in 10.0 mi WNW 6.9 mph - N/A   Overcast
1:53 PM 26.1 °F 17.6 °F 21.9 °F 84% 29.13 in 10.0 mi West 8.1 mph - N/A   Overcast
2:53 PM 26.1 °F 20.5 °F 21.9 °F 84% 29.13 in 10.0 mi West 4.6 mph - N/A   Overcast
3:53 PM 25.0 °F 20.7 °F 21.0 °F 85% 29.12 in 10.0 mi West 3.5 mph - N/A   Overcast
4:53 PM 25.0 °F 20.7 °F 19.0 °F 78% 29.12 in 10.0 mi WNW 3.5 mph - N/A   Overcast
5:53 PM 25.0 °F - 19.0 °F 78% 29.12 in 10.0 mi Calm Calm - N/A   Overcast
6:53 PM 24.1 °F - 19.0 °F 81% 29.12 in 10.0 mi Calm Calm - N/A   Overcast
7:53 PM 24.1 °F - 19.0 °F 81% 29.12 in 10.0 mi Calm Calm - N/A   Overcast
8:53 PM 21.9 °F - 17.1 °F 82% 29.13 in 10.0 mi Calm Calm - N/A   Overcast
9:25 PM 19.9 °F - 17.1 °F 89% 29.12 in 10.0 mi Calm Calm - N/A   Mostly Cloudy
9:53 PM 19.9 °F - 17.1 °F 89% 29.13 in 10.0 mi Calm Calm - N/A   Overcast
10:53 PM 21.0 °F - 19.0 °F 92% 29.13 in 10.0 mi Calm Calm - N/A   Overcast
11:53 PM 21.0 °F - 19.0 °F 92% 29.13 in 10.0 mi Calm Calm - N/A   Overcast